Location: Bretagne
(43.8474°N, 0.4650°W)
Time: 12:48:10
(UTC+00:00)

Radarsat Rocket - Pass Details

Date: 24 April 2026
Orbit: 933 x 1491 km, 100.5° (Epoch: 12 May)

Event Time Altitude Azimuth Distance (km) Brightness Sun altitude
Rises 20:21:17 0° 207° (SSW) 4,556 7.4 -14.4°
Reaches altitude 10° 20:24:52 10° 220° (SW) 3,615 7.0 -15.0°
Maximum altitude 20:31:19 23° 270° (W) 2,743 7.0 -15.9°
Drops below altitude 10° 20:37:47 10° 319° (NW) 3,600 8.2 -16.8°
Sets 20:41:23 0° 333° (NNW) 4,533 8.7 -17.3°
